Volver al catálogo

NOAA 16 DEB

ActivoSSO
NORAD 41276·DEBRIS·🇺🇸 United States

Lanzado Sep 21, 2000 desde Vandenberg Space Force Base

Loading…

Próximos Pases (próximas 24 horas)

TLE

EnvejeciendoSource: Space-Track

Época: Sep 10, 2026, 08:43 UTC

1 41276U 00055GC  26253.36324178  .00001694  00000-0  74964-3 0  9995
2 41276  98.6463 301.7845 0011196 256.5289 103.4643 14.24467584553145

Sigue NOAA 16 DEB en tiempo real con AllMySat

Download on the App Store